Home   Weather   Lancaster   Past weeks

Flag for USA Past Weather in Lancaster, California, USA — Yesterday and Last 2 Weeks

Now
57 °F

Sunny.


Feels Like: 55 °F
Forecast: 31 / 58 °F
Wind: 10 mph from Northeast

Location: Lancaster / Fox Field

Current Time: Dec 3, 2016 at 2:02:12 pm

Latest Report: Dec 3, 2016 at 12:56 pm


Visibility: 10 mi

Pressure: 30.21 "Hg (27.74 "Hg at 718m altitude)

Humidity: 10%

Dew Point: 2 °F

Location of LancasterLocation

Past Weather in Lancaster — Graph

°F

Lancaster Temperature Yesterday

Maximum temperature yesterday: 53 °F (at 11:56 am)
Minimum temperature yesterday: 31 °F (at 5:56 am)
Average temperature yesterday: 42 °F

High & Low Weather Summary for the Past Weeks

 TemperatureHumidityPressure
High65 °F (Nov 19, 3:56 pm)96% (Nov 29, 3:56 am)30.41 "Hg (Nov 29, 3:56 am)
Low20 °F (Nov 26, 6:56 am)9% (Nov 19, 1:56 pm)29.85 "Hg (Nov 28, 1:56 pm)
Average44 °F53%30.10 "Hg
* Reported Nov 18 12:56 pm — Dec 3 12:56 pm, Lancaster, Weather by CustomWeather, © 2016

Note: Actual official high and low records may vary slightly from our data, if they occured in-between our weather recording intervals... More about our weather records

Advertising

Lancaster Weather History for the Previous 24 Hours

Scroll right to see more
 ConditionsComfort  
Time TempWeatherWind HumidityBarometerVisibility
12:56 pm
Sat, Dec 3
57 °FSunny.10 mph10%30.21 "Hg10 mi
11:56 am55 °FSunny.6 mph13%30.24 "Hg10 mi
10:56 am53 °FSunny.9 mph14%30.27 "Hg10 mi
9:56 am50 °FSunny.8 mph18%30.30 "Hg10 mi
8:56 am45 °FSunny.5 mph24%30.31 "Hg10 mi
7:56 am33 °FSunny.3 mph38%30.30 "Hg10 mi
6:56 am25 °FSunny.5 mph46%30.28 "Hg10 mi
5:56 am26 °FClear.5 mph46%30.28 "Hg10 mi
4:56 am28 °FClear.7 mph43%30.27 "Hg10 mi
3:56 am29 °FClear.7 mph41%30.25 "Hg10 mi
12:56 am30 °FClear.5 mph38%30.25 "Hg10 mi
11:56 pm
Fri, Dec 2
33 °FClear.9 mph33%30.24 "Hg10 mi
10:56 pm39 °FClear.13 mph28%30.23 "Hg10 mi
9:56 pm40 °FClear.8 mph25%30.23 "Hg10 mi
8:56 pm37 °FClear.8 mph28%30.22 "Hg10 mi
7:56 pm41 °FClear.12 mph23%30.21 "Hg10 mi
6:56 pm44 °FClear.14 mph21%30.20 "Hg10 mi
5:56 pm45 °FClear.15 mph20%30.18 "Hg10 mi
4:56 pm47 °FClear.15 mph18%30.16 "Hg10 mi
3:56 pm50 °FSunny.21 mph16%30.14 "Hg10 mi
2:56 pm52 °FSunny.24 mph15%30.13 "Hg10 mi
Weather by CustomWeather, © 2016

See weather overviewHow to use our weather pages